Location: Gwatt
(46.7204°N, 7.6223°E)
Time: 00:14:21
(UTC+00:00)

Envisat - Pass Details

Date: 27 November 2020
Orbit: 764 x 766 km, 98.1° (Epoch: 19 January)

Event Time Altitude Azimuth Distance (km) Brightness Sun altitude
Rises 06:05:50 0° 8° (N) 3,246 6.1 -7.4°
Reaches altitude 10° 06:08:13 10° 3° (N) 2,315 5.3 -7.0°
Maximum altitude 06:13:05 48° 290° (WNW) 998 3.2 -6.3°
Drops below altitude 10° 06:17:56 10° 218° (SW) 2,298 5.4 -5.5°
Sets 06:20:18 0° 212° (SSW) 3,220 6.2 -5.2°
